1501081200.75,44815,20.13,73094.3,4.63,1.17,0.95,0,*4B
1501081201.96,44816,20.13,73094.0,4.61,1.05,0.83,0,*4E
1501081203.17,44817,20.13,73094.5,4.57,1.29,1.05,0,*7B
1501081204.36,44818,20.13,73094.8,4.57,1.41,1.17,0,*79
1501081205.57,44819,20.13,73096.8,4.57,1.97,1.79,0,*7B
1501081206.74,44820,20.13,73094.5,4.57,1.75,1.41,0,*76
1501081207.97,44821,20.13,73094.8,4.61,1.85,1.67,0,*79
1501081209.18,44822,20.13,73094.0,4.61,2.35,2.13,0,*72
1501081210.41,44823,20.13,73088.8,4.61,2.59,2.39,0,*71
1501081211.64,44824,20.13,73092.8,4.61,2.69,2.51,0,*7B
1501081212.87,44825,20.13,73092.3,4.61,2.21,2.01,0,*73
1501081214.06,44826,20.13,73092.3,4.65,1.83,1.71,0,*7B
1501081215.3,44827,20.13,73090.0,4.63,1.59,1.43,0,*7A
1501081216.56,44828,20.13,73090.5,4.63,1.43,1.21,0,*7A
1501081217.79,44829,20.13,73092.8,4.63,1.41,1.17,0,*7C
1501081218.99,44830,20.13,73094.5,4.63,1.83,1.79,0,*72
1501081220.22,44831,20.13,73098.0,4.63,2.35,2.25,0,*77
1501081221.47,44832,20.13,73096.5,4.63,2.39,2.39,0,*75
1501081222.65,44833,20.13,73098.5,4.65,1.83,1.83,0,*72
1501081223.87,44834,20.13,73096.0,4.63,1.79,1.71,0,*7B
1501081225.09,44835,20.13,73102.0,4.65,1.59,1.55,0,*78
1501081226.32,44836,20.13,73098.3,4.63,1.71,1.79,0,*79
1501081227.5,44837,20.13,73098.5,4.65,1.79,1.79,0,*76
1501081228.73,44838,20.13,73098.3,4.65,1.55,1.67,0,*78
1501081229.94,44839,20.13,73098.5,4.65,1.59,1.71,0,*72
1501081231.17,44840,20.13,73096.0,4.65,1.29,1.43,0,*7A
1501081232.43,44841,20.13,73098.8,4.67,1.13,1.25,0,*70
1501081233.64,44842,20.13,73100.0,4.65,0.55,0.87,0,*7B
1501081234.89,44843,20.13,73100.8,4.67,0.71,1.09,0,*49
1501081236.14,44844,20.13,73106.0,4.67,0.41,0.91,0,*7D
1501081237.38,44845,20.13,73104.3,4.67,0.29,0.71,0,*7C
1501081238.59,44846,20.13,73102.8,4.67,-0.57,-0.15,0,*74
1501081239.82,44847,20.13,73104.0,4.67,-0.77,-0.23,0,*72
1501081241.02,44848,20.13,73100.0,4.63,-0.65,0.09,0,*6F
1501081242.19,44849,20.13,73100.8,4.65,-0.77,0.09,0,*6B
1501081243.39,44850,20.13,73102.5,4.65,-1.05,0.05,0,*5B
1501081244.61,44851,20.13,73104.3,4.65,-0.93,0.33,0,*51
1501081245.84,44852,20.13,73102.5,4.65,-1.01,0.37,0,*6C
1501081247.06,44853,20.13,73100.8,4.67,-1.25,0.37,0,*69
1501081248.28,44854,20.13,73104.8,4.69,-1.95,-0.19,0,*4A
1501081249.48,44855,20.13,73108.3,4.69,-2.67,-0.65,0,*4E
1501081250.71,44856,20.13,73108.0,4.67,-3.07,-0.85,0,*4A
1501081251.93,44857,20.13,73106.0,4.67,-2.95,-0.49,0,*41
1501081253.18,44858,20.13,73106.3,4.67,-3.75,-1.01,0,*7C
1501081254.37,44859,20.13,73106.0,4.65,-4.21,-1.17,0,*7E
1501081255.57,44860,20.13,73100.3,4.65,-4.85,-1.63,0,*79
1501081256.79,44861,20.13,73102.5,4.65,-5.31,-1.79,0,*7D
1501081258.0,44862,20.13,73100.8,4.63,-5.43,-1.55,0,*73
1501081259.24,44863,20.13,73096.5,4.65,-5.85,-2.03,0,*7E
1501081260.46,44864,20.13,73094.3,4.57,-6.19,-2.15,0,*79
1501081261.7,44865,20.13,73094.5,4.57,-5.03,-1.05,0,*72
1501081262.9,44866,20.13,73092.3,4.57,-4.81,-0.77,0,*4E
1501081264.08,44867,20.13,73094.5,4.57,-4.49,-0.45,0,*4A
1501081265.27,44868,20.13,73090.8,4.61,-4.09,-0.07,0,*72
1501081266.49,44869,20.13,73092.0,4.57,-4.01,-0.19,0,*41
1501081267.68,44870,20.13,73094.5,4.57,-3.83,-0.11,0,*4C
1501081268.91,44871,20.13,73090.5,4.61,-3.59,-0.11,0,*4F
1501081270.11,44872,20.13,73094.0,4.57,-3.15,0.17,0,*6A
1501081271.34,44873,20.13,73092.5,4.61,-2.55,0.55,0,*6D
1501081272.57,44874,20.13,73088.0,4.57,-1.95,0.83,0,*6B
1501081273.8,44875,20.13,73092.3,4.61,-2.07,0.63,0,*69
1501081275.0,44876,20.13,73090.8,4.61,-1.79,0.83,0,*6E
1501081276.21,44877,20.13,73094.5,4.61,-1.91,0.43,0,*65
1501081277.44,44878,20.13,73094.3,4.61,-0.93,1.17,0,*69
1501081278.67,44879,20.13,73092.8,4.63,-0.53,1.09,0,*69
1501081279.88,44880,20.13,73092.0,4.63,-0.61,0.95,0,*5A
1501081281.11,44881,20.13,73094.5,4.63,-0.15,1.21,0,*66
1501081282.3,44882,20.13,73092.3,4.63,0.43,1.79,0,*46
1501081283.5,44883,20.13,73094.8,4.65,0.79,1.79,0,*48
1501081284.71,44884,20.13,73092.0,4.65,0.59,1.43,0,*44
1501081285.91,44885,20.13,73096.3,4.65,0.67,1.43,0,*48
1501081287.13,44886,20.13,73094.0,4.65,0.95,1.67,0,*40
1501081288.32,44887,20.13,73092.8,4.65,0.97,1.67,0,*43
1501081289.57,44888,20.13,73094.8,4.67,1.43,1.93,0,*7D
1501081290.8,44889,20.13,73100.0,4.69,1.37,1.89,0,*7A
1501081292.02,44890,20.13,73098.5,4.69,1.25,1.51,0,*74
1501081293.25,44891,20.13,73098.8,4.69,0.55,0.75,0,*74
1501081294.43,44892,20.13,73100.3,4.69,0.43,0.51,0,*76
1501081295.64,44893,20.13,73096.5,4.69,0.67,0.87,0,*7A
1501081296.87,44894,20.13,73100.0,4.69,1.25,1.13,0,*76
1501081298.09,44895,20.13,73100.8,4.69,1.47,1.25,0,*76
1501081299.29,44896,20.13,73102.8,4.69,1.47,1.05,0,*77
1501081300.52,44897,20.13,73102.0,4.73,1.55,1.17,0,*7D
1501081301.73,44898,20.13,73102.0,4.73,1.33,1.05,0,*71
1501081302.95,44899,20.13,73104.8,4.73,1.17,0.79,0,*4C
1501081304.14,44900,20.13,73102.8,4.73,0.67,0.05,0,*40
1501081305.34,44901,20.13,73106.8,4.73,-0.27,-0.53,0,*76
1501081306.57,44902,20.13,73106.8,4.75,-0.65,-1.01,0,*43
1501081307.79,44903,20.13,73102.3,4.77,-1.71,-1.95,0,*79
1501081309.03,44904,20.13,73102.0,4.75,-2.15,-2.51,0,*76
1501081310.27,44905,20.13,73100.5,4.75,-2.55,-3.03,0,*75
1501081311.49,44906,20.13,73106.8,4.75,-2.87,-3.27,0,*7F
1501081312.72,44907,20.13,73100.3,4.75,-3.15,-3.43,0,*76
1501081313.94,44908,20.13,73098.3,4.75,-3.95,-4.05,0,*74
1501081315.21,44909,20.13,73096.5,4.75,-5.07,-4.93,0,*77
1501081316.45,44910,20.13,73098.0,4.75,-5.35,-5.11,0,*75
1501081317.66,44911,20.13,73092.5,4.73,-4.69,-4.41,0,*7E
1501081318.87,44912,20.13,73094.8,4.73,-4.73,-4.41,0,*76
1501081320.05,44913,20.13,73094.0,4.73,-4.99,-4.65,0,*75
1501081321.3,44914,20.13,73096.3,4.73,-5.31,-5.07,0,*74
1501081322.54,44915,20.13,73096.3,4.73,-5.61,-5.61,0,*70
1501081323.75,44916,20.13,73096.3,4.73,-6.63,-6.39,0,*7C
1501081324.96,44917,20.13,73096.0,4.73,-7.83,-7.31,0,*7B
1501081326.17,44918,20.13,73096.0,4.73,-7.49,-6.63,0,*74
1501081327.4,44919,20.13,73096.8,4.69,-8.71,-7.61,0,*79
1501081328.6,44920,20.13,73098.0,4.69,-9.61,-8.29,0,*70
1501081329.87,44921,20.13,73094.8,4.67,-9.57,-8.07,0,*76
1501081331.08,44922,20.13,73092.8,4.67,-10.35,-8.75,0,*4C
1501081332.27,44923,20.13,73098.8,4.65,-9.19,-7.19,0,*7C
1501081333.52,44924,20.13,73100.8,4.65,-7.57,-5.89,0,*74
1501081334.78,44925,20.13,73094.5,4.67,-9.41,-8.03,0,*71
1501081336.05,44926,20.13,73098.0,4.67,-7.43,-5.85,0,*7D
1501081337.24,44927,20.13,73094.5,4.69,-7.49,-6.39,0,*7C
1501081338.43,44928,20.13,73096.8,4.73,-7.15,-6.39,0,*71
1501081339.69,44929,20.13,73098.8,4.75,-6.93,-6.27,0,*76
1501081340.94,44930,20.13,73098.8,4.77,-8.11,-7.43,0,*7B
1501081342.15,44931,20.13,73092.3,4.81,-8.67,-7.39,0,*7F
1501081343.35,44932,20.13,73094.5,4.81,-8.55,-7.15,0,*73
1501081344.59,44933,20.13,73088.0,4.87,-8.85,-7.57,0,*7F
1501081345.83,44934,20.13,73094.5,4.91,-9.23,-7.35,0,*76
1501081347.05,44935,20.13,73094.3,4.95,-9.23,-6.97,0,*7A
1501081348.28,44936,20.13,73094.0,4.99,-9.83,-7.05,0,*75
1501081349.51,44937,20.13,73094.5,5.01,-9.53,-6.69,0,*72
1501081350.73,44938,20.13,73090.8,5.07,-9.67,-7.61,0,*75
1501081351.95,44939,20.13,73090.5,5.11,-10.23,-7.39,0,*46
1501081353.14,44940,20.13,73090.0,5.15,-10.35,-7.15,0,*45
1501081354.38,44941,20.13,73090.0,5.17,-11.33,-8.29,0,*41
1501081355.61,44942,20.13,73090.3,5.19,-11.97,-8.85,0,*44
1501081356.89,44943,20.13,73086.5,5.21,-13.61,-10.67,0,*70
1501081358.1,44944,20.13,73084.3,5.23,-13.79,-10.85,0,*70
1501081359.3,44945,20.13,73086.0,5.25,-13.65,-10.49,0,*7A
1501081360.55,44946,20.13,73094.0,5.31,-14.01,-10.85,0,*79
1501081361.8,44947,20.13,73094.0,5.35,-14.97,-10.89,0,*7F
1501081363.02,44948,20.13,73088.5,5.37,-15.53,-11.37,0,*7F
1501081364.22,44949,20.13,73088.0,5.41,-16.03,-11.45,0,*7C
1501081365.49,44950,20.13,73088.0,5.43,-16.27,-11.37,0,*75
1501081366.68,44951,20.13,73090.3,5.49,-16.03,-11.11,0,*7C
1501081367.89,44952,20.13,73090.5,5.49,-15.21,-11.23,0,*7D
1501081369.17,44953,20.13,73090.5,5.57,-16.09,-11.81,0,*72
1501081370.42,44954,20.13,73092.8,5.59,-16.13,-11.93,0,*73
1501081371.67,44955,20.13,73094.0,5.63,-17.07,-13.29,0,*7C
1501081372.9,44956,20.13,73094.8,5.63,-17.25,-13.19,0,*7C
1501081374.14,44957,20.13,73098.3,5.67,-16.69,-12.65,0,*7A
1501081375.4,44958,20.13,73092.3,5.69,-17.03,-13.87,0,*7B
1501081376.65,44959,20.13,73094.3,5.69,-17.17,-14.19,0,*7F
1501081377.9,44960,20.13,73094.3,5.73,-19.51,-15.81,0,*72
1501081379.13,44961,20.13,73088.5,5.73,-19.17,-15.15,0,*7C
1501081380.4,44962,20.13,73084.3,5.73,-18.31,-14.75,0,*7D
1501081381.66,44963,20.13,73086.3,5.77,-17.25,-13.37,0,*73
1501081382.93,44964,20.13,73090.5,5.77,-15.89,-13.01,0,*75
1501081384.15,44965,20.13,73096.3,5.81,-15.71,-13.11,0,*7B
1501081385.39,44966,20.13,73096.5,5.85,-14.89,-12.35,0,*7D
1501081386.66,44967,20.13,73100.0,5.85,-14.43,-11.89,0,*7E
1501081387.92,44968,20.13,73096.0,5.91,-15.57,-12.79,0,*7C
1501081389.16,44969,20.13,73094.5,5.91,-15.85,-13.19,0,*75
1501081390.4,44970,20.13,73096.3,5.93,-16.55,-13.19,0,*71
1501081391.66,44971,20.13,73098.0,5.93,-15.71,-13.61,0,*7A
1501081392.92,44972,20.13,73098.0,5.95,-14.75,-12.35,0,*7A
1501081394.16,44973,20.13,73098.5,5.99,-14.51,-12.43,0,*70
1501081395.37,44974,20.13,73096.5,6.03,-13.47,-11.41,0,*76
1501081396.59,44975,20.13,73098.3,6.03,-14.69,-14.05,0,*79
1501081397.87,44976,20.13,73092.3,6.05,-18.35,-16.65,0,*7D
1501081399.12,44977,20.13,73092.3,6.07,-17.97,-15.49,0,*74
1501081400.35,44978,20.13,73092.5,6.07,-16.13,-13.43,0,*7A
1501081401.62,44979,20.13,73092.3,6.07,-14.47,-11.67,0,*7C
1501081402.87,44980,20.13,73096.8,6.13,-14.65,-11.97,0,*70
1501081404.1,44981,20.13,73094.3,6.15,-15.57,-13.19,0,*73
1501081405.35,44982,20.13,73094.3,6.17,-15.49,-13.79,0,*7B
1501081406.64,44983,20.13,73098.3,6.17,-14.01,-12.79,0,*76
1501081407.87,44984,20.13,73096.0,6.17,-12.93,-11.23,0,*70
1501081409.09,44985,20.13,73096.0,6.21,-14.23,-10.35,0,*7F
1501081410.38,44986,20.13,73092.3,6.23,-14.55,-10.41,0,*7C
1501081411.66,44987,20.13,73094.8,6.23,-16.69,-11.67,0,*75
1501081412.9,44988,20.13,73096.3,6.25,-13.93,-12.53,0,*78
1501081414.16,44989,20.13,73092.8,6.25,-13.83,-11.81,0,*74
1501081415.39,44990,20.13,73092.5,6.27,-15.95,-13.15,0,*70
1501081416.62,44991,20.13,73094.0,6.29,-12.07,-10.35,0,*72
1501081417.88,44992,20.13,73094.0,6.31,-10.67,-8.85,0,*4E
1501081419.09,44993,20.13,73096.3,6.35,-9.67,-8.25,0,*79
1501081420.28,44994,20.13,73092.3,6.37,-8.85,-8.67,0,*77
1501081421.52,44995,20.13,73092.8,6.39,-8.89,-8.51,0,*71
1501081422.74,44996,20.13,73092.3,6.43,-8.55,-8.29,0,*71
1501081423.97,44997,20.13,73094.0,6.47,-7.99,-8.55,0,*70
1501081425.19,44998,20.13,73094.8,6.47,-8.41,-9.75,0,*76
1501081426.46,44999,20.13,73092.8,6.51,-9.45,-10.63,0,*4A
1501081427.71,45000,20.13,73092.5,6.51,-13.01,-13.69,0,*70
1501081428.94,45001,20.13,73094.8,6.57,-13.55,-12.39,0,*72
1501081430.19,45002,20.13,73090.5,6.53,-12.89,-12.83,0,*74
1501081431.44,45003,20.13,73094.0,6.53,-11.37,-8.85,0,*4E
1501081432.69,45004,20.13,73094.0,6.57,-11.85,-11.45,0,*70
1501081433.9,45005,20.13,73092.5,6.59,-12.47,-10.45,0,*73
1501081435.13,45006,20.13,73098.3,6.61,-9.57,-8.75,0,*7A
1501081436.35,45007,20.13,73096.8,6.61,-8.63,-8.37,0,*7B
1501081437.59,45008,20.13,73096.8,6.61,-7.95,-8.37,0,*72
1501081438.81,45009,20.13,73100.3,6.63,-6.97,-8.59,0,*7A
1501081440.07,45010,20.13,73098.0,6.65,-8.03,-12.07,0,*47
1501081441.31,45011,20.13,73092.3,6.69,-9.97,-12.07,0,*46
1501081442.59,45012,20.13,73088.8,6.69,-10.71,-11.29,0,*7A
1501081443.85,45013,20.13,73088.5,6.69,-11.23,-11.93,0,*7C
1501081445.05,45014,20.13,73086.3,6.71,-10.45,-13.23,0,*7A
1501081446.3,45015,20.13,73084.5,6.71,-11.37,-14.51,0,*7D
1501081447.58,45016,20.13,73084.8,6.73,-12.75,-16.17,0,*79
1501081448.8,45017,20.13,73086.8,6.71,-12.83,-15.11,0,*76
1501081450.06,45018,20.13,73084.3,6.71,-11.29,-12.35,0,*7B
1501081451.28,45019,20.13,73086.8,6.71,-9.61,-10.57,0,*49
1501081452.52,45020,20.13,73084.3,6.73,-8.07,-8.75,0,*79
1501081453.74,45021,20.13,73086.5,6.75,-9.57,-10.35,0,*47
1501081454.94,45022,20.13,73088.0,6.75,-9.97,-10.35,0,*48
1501081456.15,45023,20.13,73086.8,6.79,-9.79,-10.71,0,*45
1501081457.35,45024,20.13,73086.8,6.83,-11.15,-12.25,0,*77
1501081458.59,45025,20.13,73080.8,6.83,-11.97,-13.19,0,*72
1501081459.8,45026,20.13,73084.5,6.83,-11.81,-13.47,0,*7D
1501081461.03,45027,20.13,73084.5,6.87,-12.47,-14.37,0,*71
1501081462.28,45028,20.13,73088.0,6.87,-13.33,-14.15,0,*7C
1501081463.53,45029,20.13,73084.3,6.87,-16.23,-15.67,0,*7D
1501081464.81,45030,20.13,73084.0,6.87,-15.35,-16.09,0,*7A
1501081466.05,45031,20.13,73086.3,6.89,-14.97,-16.13,0,*77
1501081467.28,45032,20.13,73090.8,6.89,-14.33,-15.01,0,*7A
1501081468.54,45033,20.13,73092.3,6.89,-13.83,-14.47,0,*74
1501081469.8,45034,20.13,73088.8,6.91,-13.23,-14.43,0,*74
1501081471.05,45035,20.13,73094.3,6.91,-14.97,-15.25,0,*7C
1501081472.31,45036,20.13,73090.5,6.91,-13.65,-13.33,0,*74
1501081473.56,45037,20.13,73092.0,6.93,-18.01,-17.03,0,*79
1501081474.78,45038,20.13,73088.8,6.93,-18.65,-16.31,0,*74
1501081475.99,45039,20.13,73094.3,6.93,-18.49,-17.35,0,*7E
1501081477.19,45040,20.13,73088.0,6.89,-21.17,-21.63,0,*7C
1501081478.42,45041,20.13,73090.5,6.85,-23.75,-23.49,0,*7D
1501081479.64,45042,20.13,73092.0,6.81,-21.73,-22.07,0,*75
1501081480.87,45043,20.13,73092.0,6.75,-25.75,-25.39,0,*77
1501081482.09,45044,20.13,73090.3,6.71,-25.29,-24.51,0,*72
1501081483.34,45045,20.13,73094.0,6.65,-21.39,-21.53,0,*74
1501081484.57,45046,20.13,73092.3,6.61,-22.57,-22.41,0,*78
1501081485.81,45047,20.13,73092.3,6.53,-22.03,-21.53,0,*79
1501081487.07,45048,20.13,73094.0,6.53,-20.93,-20.53,0,*7C
1501081488.3,45049,20.13,73092.0,6.49,-19.75,-20.19,0,*7A
1501081489.52,45050,20.13,73090.5,6.45,-22.37,-21.27,0,*7C
1501081490.76,45051,20.13,73094.8,6.41,-24.35,-24.21,0,*7E
1501081491.99,45052,20.13,73088.5,6.39,-25.87,-25.91,0,*70
1501081493.24,45053,20.13,73084.5,6.31,-26.65,-26.55,0,*7D
1501081494.46,45054,20.13,73084.8,6.29,-24.57,-24.15,0,*76
1501081495.68,45055,20.13,73082.0,6.21,-23.69,-23.39,0,*7C
1501081496.94,45056,20.13,73084.3,6.19,-23.85,-23.69,0,*73
1501081498.16,45057,20.13,73082.8,6.13,-22.07,-22.53,0,*7B
1501081499.4,45058,20.13,73086.0,6.07,-23.59,-24.21,0,*78
1501081500.66,45059,20.13,73084.3,6.05,-22.77,-20.93,0,*7B
1501081501.89,45060,20.13,73086.0,6.01,-18.25,-15.95,0,*7B
1501081503.11,45061,20.13,73086.8,5.99,-15.15,-15.25,0,*7D
1501081504.33,45062,20.13,73084.5,5.97,-15.63,-18.17,0,*7D
1501081505.59,45063,20.13,73086.8,5.93,-19.41,-21.09,0,*71
1501081506.83,45064,20.13,73084.3,5.91,-16.83,-17.03,0,*7A
1501081508.09,45065,20.13,73086.5,5.91,-14.05,-15.21,0,*75
1501081509.33,45066,20.13,73086.3,5.85,-15.57,-15.15,0,*72
1501081510.56,45067,20.13,73088.0,5.83,-14.05,-16.45,0,*75
1501081511.8,45068,20.13,73090.5,5.81,-14.93,-15.71,0,*73
1501081513.04,45069,20.13,73092.0,5.77,-12.93,-14.51,0,*7E
1501081514.28,45070,20.13,73090.3,5.75,-14.93,-17.63,0,*70
1501081515.52,45071,20.13,73088.5,5.75,-17.55,-19.85,0,*7E
1501081516.77,45072,20.13,73090.5,5.73,-16.97,-17.97,0,*79
1501081518.0,45073,20.13,73094.5,5.71,-14.47,-15.63,0,*7C
1501081519.22,45074,20.13,73098.3,5.67,-16.45,-16.27,0,*7F
1501081520.44,45075,20.13,73094.5,5.63,-13.83,-13.11,0,*75
1501081521.71,45076,20.13,73092.3,5.61,-17.55,-16.65,0,*7D
1501081522.98,45077,20.13,73098.0,5.61,-16.51,-14.83,0,*73
1501081524.24,45078,20.13,73092.8,5.57,-19.23,-15.53,0,*7F
1501081525.49,45079,20.13,73094.8,5.51,-17.21,-15.53,0,*74
1501081526.77,45080,20.13,73092.3,5.51,-17.97,-16.31,0,*78
1501081527.99,45081,20.13,73090.8,5.45,-16.97,-13.87,0,*75
1501081529.26,45082,20.13,73088.3,5.43,-16.27,-11.37,0,*72
1501081530.51,45083,20.13,73092.0,5.43,-14.11,-9.83,0,*42
1501081531.75,45084,20.13,73092.8,5.43,-11.93,-8.55,0,*40
1501081532.96,45085,20.13,73094.0,5.41,-10.09,-9.61,0,*47
1501081534.21,45086,20.13,73088.5,5.41,-11.07,-12.75,0,*74
1501081535.43,45087,20.13,73092.5,5.37,-15.21,-15.15,0,*75
1501081536.65,45088,20.13,73094.8,5.37,-17.31,-15.21,0,*7E
1501081537.91,45089,20.13,73100.0,5.37,-19.41,-15.39,0,*7F
1501081539.1,45090,20.13,73096.8,5.33,-22.83,-18.21,0,*71
1501081540.3,45091,20.13,73092.3,5.33,-24.97,-19.17,0,*77
1501081541.52,45092,20.13,73088.5,5.29,-25.97,-19.75,0,*7A
1501081542.72,45093,20.13,73094.0,5.25,-25.91,-19.51,0,*77
1501081543.96,45094,20.13,73094.3,5.21,-26.07,-19.31,0,*7E
1501081545.17,45095,20.13,73090.5,5.19,-26.03,-18.99,0,*73
1501081546.36,45096,20.13,73096.3,5.15,-25.91,-18.79,0,*7A
1501081547.58,45097,20.13,73094.0,5.13,-25.39,-17.83,0,*75
1501081548.81,45098,20.13,73096.3,5.09,-24.57,-17.35,0,*75
1501081550.02,45099,20.13,73094.8,5.07,-24.47,-16.79,0,*72
1501081551.25,45100,20.13,73096.5,5.03,-23.53,-15.71,0,*7E
1501081552.48,45101,20.13,73092.5,5.03,-22.93,-15.01,0,*75
1501081553.73,45102,20.19,73098.8,5.01,-22.27,-14.43,0,*7C
1501081554.98,45103,20.13,73094.3,5.01,-21.87,-14.15,0,*77
1501081556.25,45104,20.13,73098.3,5.01,-21.67,-13.83,0,*76
1501081557.45,45105,20.13,73094.0,4.99,-21.09,-13.65,0,*77
1501081558.65,45106,20.13,73096.3,4.99,-20.93,-13.51,0,*71
1501081559.86,45107,20.13,73096.5,4.99,-20.93,-13.19,0,*7C
1501081561.11,45108,20.13,73096.5,4.97,-19.75,-11.85,0,*78
1501081562.34,45109,20.13,73094.0,4.97,-18.65,-10.97,0,*7B
1501081563.57,45110,20.13,73098.0,4.97,-17.35,-10.15,0,*73
1501081564.82,45111,20.13,73096.8,4.97,-18.73,-11.67,0,*7B
1501081566.04,45112,20.19,73098.0,4.95,-17.49,-10.27,0,*79
1501081567.31,45113,20.13,73094.5,4.93,-16.65,-9.57,0,*4E
1501081568.53,45114,20.19,73096.5,4.95,-15.43,-9.31,0,*48
1501081569.78,45115,20.13,73094.5,4.95,-16.69,-9.49,0,*4D
1501081571.01,45116,20.19,73096.8,4.95,-16.89,-9.37,0,*49
1501081572.26,45117,20.13,73092.8,4.93,-16.51,-8.85,0,*43
1501081573.5,45118,20.13,73092.3,4.93,-15.89,-8.29,0,*4C
1501081574.73,45119,20.13,73094.5,4.95,-15.53,-7.73,0,*4C
1501081575.95,45120,20.13,73094.5,4.95,-15.85,-8.17,0,*40
1501081577.23,45121,20.13,73096.3,4.97,-15.39,-7.61,0,*4A
1501081578.47,45122,20.13,73096.0,4.99,-15.01,-6.97,0,*44
1501081579.69,45123,20.13,73096.3,4.99,-14.83,-6.59,0,*4C
1501081580.92,45124,20.19,73100.0,4.99,-14.79,-6.77,0,*42
1501081582.14,45125,20.13,73096.3,4.99,-14.83,-6.39,0,*4C
1501081583.37,45126,20.19,73098.5,4.99,-13.51,-5.81,0,*47
1501081584.61,45127,20.13,73098.0,5.01,-13.73,-6.23,0,*4D
1501081585.84,45128,20.19,73096.8,5.01,-14.15,-6.09,0,*4D
1501081587.09,45129,20.13,73094.8,5.01,-14.05,-6.05,0,*41
1501081588.3,45130,20.19,73102.3,5.03,-13.93,-5.77,0,*45
1501081589.52,45131,20.13,73092.5,5.03,-13.93,-5.81,0,*4D
1501081590.75,45132,20.13,73096.3,5.07,-13.83,-5.51,0,*46
1501081591.98,45133,20.19,73098.8,5.07,-13.15,-5.23,0,*4D
1501081593.23,45134,20.19,73096.8,5.07,-13.01,-5.07,0,*49
1501081594.5,45135,20.13,73096.3,5.09,-12.71,-4.85,0,*4B
1501081595.77,45136,20.13,73098.0,5.09,-12.71,-4.81,0,*4C
1501081597.0,45137,20.13,73094.5,5.07,-12.29,-4.73,0,*43
1501081598.27,45138,20.13,73096.0,5.09,-12.71,-5.23,0,*4B
1501081599.54,45139,20.13,73096.8,5.09,-12.11,-4.93,0,*46
1501081600.78,45140,20.19,73100.0,5.09,-11.59,-4.45,0,*4C
1501081602.01,45141,20.13,73098.3,5.09,-11.41,-4.57,0,*47
1501081603.22,45142,20.13,73098.8,5.09,-11.15,-4.45,0,*46
1501081604.44,45143,20.13,73094.8,5.09,-10.45,-3.91,0,*4D
1501081605.66,45144,20.19,73094.8,5.09,-9.23,-3.03,0,*79
1501081606.87,45145,20.19,73096.3,5.11,-9.11,-3.11,0,*73
1501081608.06,45146,20.13,73092.8,5.11,-8.93,-3.15,0,*7F
1501081609.32,45147,20.13,73096.8,5.13,-7.77,-2.47,0,*7F
1501081610.53,45148,20.19,73096.8,5.13,-6.85,-1.79,0,*72
1501081611.77,45149,20.19,73100.0,5.13,-6.55,-1.87,0,*7F
1501081612.96,45150,20.13,73094.0,5.15,-6.73,-2.31,0,*7B
1501081614.15,45151,20.13,73098.3,5.15,-6.43,-2.35,0,*7D
1501081615.37,45152,20.13,73094.8,5.15,-5.93,-2.19,0,*7E
1501081616.62,45153,20.13,73096.0,5.15,-5.65,-2.07,0,*79
1501081617.81,45154,20.13,73094.0,5.15,-4.53,-1.21,0,*7D
1501081619.02,45155,20.13,73096.0,5.15,-3.63,-0.57,0,*48
1501081620.27,45156,20.13,73094.0,5.17,-3.71,-0.97,0,*46
1501081621.49,45157,20.19,73096.0,5.19,-3.59,-1.17,0,*7A
1501081622.67,45158,20.19,73094.0,5.19,-2.91,-0.73,0,*43
1501081623.9,45159,20.13,73094.8,5.21,-2.91,-1.01,0,*7D
1501081625.15,45160,20.13,73090.5,5.21,-2.67,-0.85,0,*43
1501081626.33,45161,20.13,73094.0,5.23,-2.31,-0.81,0,*47
1501081627.54,45162,20.13,73092.8,5.25,-2.43,-0.97,0,*40
1501081628.74,45163,20.19,73094.0,5.25,-1.95,-0.61,0,*40
1501081629.97,45164,20.13,73094.8,5.29,-2.07,-0.97,0,*4A
1501081631.21,45165,20.13,73092.0,5.31,-1.95,-1.17,0,*73
1501081632.41,45166,20.13,73092.3,5.29,-1.71,-0.97,0,*4A
1501081633.6,45167,20.19,73096.3,5.29,-1.55,-0.77,0,*43
1501081634.81,45168,20.19,73094.8,5.31,-1.55,-1.29,0,*7F
1501081636.08,45169,20.19,73094.8,5.35,-2.03,-1.99,0,*71
1501081637.32,45170,20.19,73092.8,5.33,-1.39,-1.47,0,*76
1501081638.56,45171,20.13,73094.5,5.35,-1.47,-1.59,0,*77
1501081639.8,45172,20.19,73096.5,5.35,-1.39,-1.59,0,*7D
1501081641.05,45173,20.19,73098.3,5.37,-1.47,-1.47,0,*78
1501081642.24,45174,20.19,73096.8,5.41,-1.33,-1.71,0,*78
1501081643.45,45175,20.13,73092.3,5.41,-2.55,-3.07,0,*79
1501081644.63,45176,20.19,73098.0,5.41,-2.35,-2.83,0,*71
1501081645.87,45177,20.13,73094.8,5.43,-2.51,-3.19,0,*72
1501081647.08,45178,20.19,73098.5,5.43,-2.39,-3.07,0,*7C
1501081648.25,45179,20.19,73098.3,5.49,-2.35,-2.83,0,*76
1501081649.48,45180,20.13,73096.5,5.53,-2.75,-3.43,0,*72
1501081650.66,45181,20.13,73094.8,5.53,-3.19,-3.91,0,*77
1501081651.93,45182,20.13,73092.0,5.57,-3.71,-4.01,0,*70
1501081653.14,45183,20.19,73096.0,5.59,-5.27,-5.55,0,*7A
1501081654.32,45184,20.13,73094.8,5.63,-6.47,-6.13,0,*70
1501081655.51,45185,20.13,73094.0,5.63,-6.81,-6.13,0,*7B
1501081656.73,45186,20.19,73092.8,5.67,-6.81,-5.31,0,*7F
1501081657.97,45187,20.13,73092.3,5.69,-6.85,-5.07,0,*71
1501081659.2,45188,20.19,73098.0,5.73,-6.23,-4.37,0,*7B
1501081660.41,45189,20.13,73096.5,5.77,-7.87,-5.51,0,*70
1501081661.64,45190,20.19,73098.5,5.77,-8.55,-5.73,0,*78
1501081662.87,45191,20.19,73098.5,5.81,-9.27,-6.23,0,*72
1501081664.13,45192,20.19,73096.3,5.89,-8.71,-5.27,0,*7C
1501081665.36,45193,20.19,73096.8,5.91,-7.57,-4.65,0,*78
1501081666.58,45194,20.13,73094.5,5.95,-7.69,-4.61,0,*72
1501081667.8,45195,20.19,73096.5,5.97,-7.49,-4.37,0,*70
1501081669.02,45196,20.13,73096.8,6.01,-7.19,-4.17,0,*78
1501081670.24,45197,20.19,73102.0,6.05,-7.15,-4.53,0,*71
1501081671.46,45198,20.19,73098.8,6.07,-7.39,-4.99,0,*74
1501081672.68,45199,20.19,73098.3,6.15,-6.51,-5.11,0,*78
1501081673.91,45200,20.19,73098.5,6.17,-6.89,-6.51,0,*7B
1501081675.1,45201,20.19,73100.5,6.19,-9.79,-9.67,0,*7E
1501081676.36,45202,20.19,73096.8,6.21,-11.89,-11.55,0,*78
1501081677.58,45203,20.13,73094.5,6.19,-13.15,-13.01,0,*76
1501081678.81,45204,20.19,73098.3,6.19,-13.01,-13.11,0,*75
1501081680.04,45205,20.13,73094.5,6.19,-13.47,-13.61,0,*71
1501081681.25,45206,20.13,73092.8,6.19,-14.11,-14.29,0,*7D
1501081682.49,45207,20.13,73094.5,6.19,-13.69,-13.61,0,*7F
1501081683.72,45208,20.19,73098.0,6.21,-13.23,-14.01,0,*74
1501081684.96,45209,20.19,73096.8,6.23,-14.29,-15.25,0,*7D
1501081686.2,45210,20.19,73096.0,6.23,-15.15,-15.95,0,*70
1501081687.44,45211,20.13,73092.8,6.25,-15.39,-15.53,0,*73
1501081688.72,45212,20.19,73096.5,6.23,-13.97,-14.43,0,*74
1501081689.99,45213,20.19,73096.0,6.23,-14.51,-15.53,0,*78
1501081691.24,45214,20.19,73098.3,6.23,-15.67,-16.31,0,*7C
1501081692.48,45215,20.19,73098.3,6.23,-16.75,-16.59,0,*73
1501081693.75,45216,20.19,73096.3,6.23,-17.45,-17.87,0,*70
1501081695.03,45217,20.13,73092.8,6.23,-18.93,-18.93,0,*7F
1501081696.26,45218,20.19,73096.3,6.21,-18.99,-18.55,0,*72
1501081697.48,45219,20.13,73090.3,6.21,-18.11,-17.55,0,*7C
1501081698.69,45220,20.19,73092.3,6.21,-18.45,-17.83,0,*7C
1501081699.92,45221,20.13,73094.8,6.19,-17.97,-16.93,0,*76
1501081701.19,45222,20.19,73094.3,6.19,-17.41,-16.17,0,*72
1501081702.42,45223,20.19,73090.3,6.21,-16.65,-14.89,0,*7A
1501081703.62,45224,20.19,73088.8,6.21,-15.49,-14.29,0,*7A
1501081704.86,45225,20.19,73088.3,6.25,-14.51,-13.23,0,*7A
1501081706.09,45226,20.19,73094.5,6.25,-13.43,-11.97,0,*70
1501081707.32,45227,20.13,73088.5,6.31,-14.19,-13.73,0,*74
1501081708.54,45228,20.19,73090.3,6.35,-14.65,-13.93,0,*7A
1501081709.76,45229,20.19,73084.8,6.35,-14.65,-13.93,0,*7B
1501081710.99,45230,20.13,73080.8,6.37,-14.47,-13.69,0,*74